EW8311 Weather Reports


time (UTC)temp
C
wind
direction
speed
KPH
gust
KPH
rain 1hr
cm
rain 24hr
cm
rain mn
cm
humidity
%
barometer
mb
20210920063134 25 103 0.0 4.8 0.00 0.00 0.00 48 1005.7
20210920061622 24 97 0.0 1.6 0.00 0.00 0.00 49 1005.6
20210920060242 25 113 0.0 1.6 0.00 0.00 0.00 46 1005.5
20210920054648 25 116 0.0 1.6 0.00 0.00 0.00 48 1005.4
20210920053118 24 101 0.0 1.6 0.00 0.00 0.00 48 1005.4
20210920051552 25 101 0.0 1.6 0.00 0.00 0.00 49 1005.4
20210920050131 25 101 0.0 3.2 0.00 0.00 0.00 48 1005.3
20210920044608 25 25 0.0 1.6 0.00 0.00 0.00 46 1005.4
20210920043108 25 5 0.0 0.0 0.00 0.00 0.00 45 1005.3
20210920041554 26 328 0.0 0.0 0.00 0.00 0.00 44 1005.2
20210920040109 27 328 0.0 1.6 0.00 0.00 0.00 40 1005.1
20210920034612 27 328 0.0 4.8 0.00 0.00 0.00 35 1004.9
20210920033109 28 335 1.6 4.8 0.00 0.00 0.00 34 1004.7
20210920031627 28 295 0.0 8.0 0.00 0.00 0.00 31 1004.5
20210920030131 29 317 4.8 11.3 0.00 0.00 0.00 30 1004.2
20210920024559 29 304 1.6 3.2 0.00 0.00 0.00 33 1004.0
20210920023142 30 333 1.6 11.3 0.00 0.00 0.00 32 1003.7
20210920021544 30 310 3.2 8.0 0.00 0.00 0.00 34 1003.5
20210920020106 30 314 3.2 16.1 0.00 0.00 0.00 34 1003.3
20210920014635 31 313 4.8 16.1 0.00 0.00 0.00 34 1003.0
20210920013115 31 311 6.4 16.1 0.00 0.00 0.00 34 1002.9
20210920011548 31 336 3.2 9.7 0.00 0.00 0.00 35 1002.8
20210920010109 32 346 3.2 12.9 0.00 0.00 0.00 34 1002.8
20210920004653 32 317 1.6 17.7 0.00 0.00 0.00 34 1002.7
20210920003054 32 318 9.7 24.1 0.00 0.00 0.00 33 1002.8
20210920001607 30 315 11.3 24.1 0.00 0.00 0.00 42 1002.7
20210920000034 31 344 11.3 24.1 0.00 0.00 0.00 41 1002.7
20210919234540 32 305 11.3 17.7 0.00 0.00 0.00 39 1002.6
20210919233102 33 321 4.8 14.5 0.00 0.00 0.00 37 1002.7
20210919231557 33 327 6.4 17.7 0.00 0.00 0.00 36 1002.7
20210919230034 34 320 4.8 17.7 0.00 0.00 0.00 35 1002.7
20210919224554 34 311 3.2 11.3 0.00 0.00 0.00 35 1002.7
20210919223043 34 345 4.8 20.9 0.00 0.00 0.00 37 1002.9
20210919221656 34 311 3.2 11.3 0.00 0.00 0.00 36 1002.9
20210919220033 34 251 0.0 6.4 0.00 0.00 0.00 35 1003.1
20210919214532 33 289 6.4 19.3 0.00 0.00 0.00 37 1003.4
20210919213034 33 284 1.6 9.7 0.00 0.00 0.00 39 1003.6
20210919211529 33 299 1.6 4.8 0.00 0.00 0.00 37 1004.0
20210919210024 33 269 4.8 11.3 0.00 0.00 0.00 38 1004.2
20210919204521 34 304 1.6 6.4 0.00 0.00 0.00 35 1004.2
20210919203022 33 304 3.2 11.3 0.00 0.00 0.00 36 1004.5
20210919201510 33 130 1.6 8.0 0.00 0.00 0.00 37 1004.7
20210919200046 33 259 3.2 8.0 0.00 0.00 0.00 37 1005.2
20210919194506 33 262 0.0 6.4 0.00 0.00 0.00 39 1005.2
20210919193004 32 270 1.6 8.0 0.00 0.00 0.00 41 1005.5
20210919190105 32 321 1.6 4.8 0.00 0.00 0.00 42 1005.9
20210919184625 32 315 1.6 4.8 0.00 0.00 0.00 42 1006.2
20210919183217 31 326 1.6 6.4 0.00 0.00 0.00 43 1006.4
20210919181714 31 320 0.0 4.8 0.00 0.00 0.00 43 1006.7
20210919180054 30 235 0.0 4.8 0.00 0.00 0.00 46 1006.8
20210919174643 30 262 0.0 3.2 0.00 0.00 0.00 48 1007.0
20210919173138 30 274 0.0 3.2 0.00 0.00 0.00 49 1007.2
20210919171632 29 124 0.0 3.2 0.00 0.00 0.00 52 1007.4
20210919170141 28 281 0.0 1.6 0.00 0.00 0.00 55 1007.5
20210919163137 28 208 0.0 3.2 0.00 0.00 0.00 58 1007.7
20210919161540 26 274 0.0 3.2 0.00 0.00 0.00 62 1007.7
20210919160130 26 318 0.0 1.6 0.00 0.00 0.00 64 1007.8
20210919154552 27 241 0.0 1.6 0.00 0.00 0.00 64 1007.6
20210919153103 26 190 0.0 1.6 0.00 0.00 0.00 64 1007.6
20210919151559 25 186 0.0 0.0 0.00 0.00 0.00 68 1007.6
20210919150033 25 183 0.0 0.0 0.00 0.00 0.00 68 1007.6
20210919144525 25 101 0.0 0.0 0.00 0.00 0.00 70 1007.6
20210919143041 24 101 0.0 0.0 0.00 0.00 0.00 72 1007.5
20210919141551 23 101 0.0 0.0 0.00 0.00 0.00 75 1007.6
20210919140015 22 101 0.0 0.0 0.00 0.00 0.00 81 1007.5
20210919134516 21 101 0.0 0.0 0.00 0.00 0.00 81 1007.3
20210919133041 21 101 0.0 0.0 0.00 0.00 0.00 83 1007.1
20210919131509 21 101 0.0 0.0 0.00 0.00 0.00 82 1006.9
20210919130009 21 101 0.0 0.0 0.00 0.00 0.00 82 1006.8
20210919124507 21 101 0.0 0.0 0.00 0.00 0.00 82 1006.8
20210919123013 21 101 0.0 0.0 0.00 0.00 0.00 82 1006.7
20210919121512 21 101 0.0 0.0 0.00 0.00 0.00 83 1006.5
20210919120005 21 101 0.0 0.0 0.00 0.00 0.00 83 1006.5
20210919114503 21 101 0.0 0.0 0.00 0.00 0.00 83 1006.5
20210919113106 21 101 0.0 0.0 0.00 0.00 0.00 82 1006.3
20210919111651 21 101 0.0 0.0 0.00 0.00 0.00 82 1006.2
20210919110130 21 101 0.0 0.0 0.00 0.00 0.00 81 1006.1
20210919104618 21 101 0.0 0.0 0.00 0.00 0.00 79 1006.1
20210919103134 22 101 0.0 0.0 0.00 0.00 0.00 80 1006.1
20210919101734 22 101 0.0 0.0 0.00 0.00 0.00 78 1006.2
20210919100054 22 101 0.0 0.0 0.00 0.00 0.00 79 1006.5
20210919094607 22 101 0.0 0.0 0.00 0.00 0.00 78 1006.6
20210919093229 22 101 0.0 0.0 0.00 0.00 0.00 76 1006.8
20210919091609 23 101 0.0 1.6 0.00 0.00 0.00 75 1006.7
20210919090117 23 101 0.0 0.0 0.00 0.00 0.00 75 1006.7
20210919084710 23 101 0.0 0.0 0.00 0.00 0.00 74 1006.8
20210919083104 23 101 0.0 1.6 0.00 0.00 0.00 74 1006.9
20210919081547 23 316 0.0 0.0 0.00 0.00 0.00 76 1007.0
20210919080113 23 316 0.0 0.0 0.00 0.00 0.00 75 1007.0
20210919074649 23 316 0.0 0.0 0.00 0.00 0.00 74 1007.1
20210919073101 23 316 0.0 0.0 0.00 0.00 0.00 73 1007.3
20210919071622 23 316 0.0 0.0 0.00 0.00 0.00 74 1007.4
20210919070028 23 316 0.0 0.0 0.00 0.00 0.00 73 1007.6
20210919064525 24 316 0.0 0.0 0.00 0.00 0.00 73 1007.6